CW2969 Weather Reports


time (UTC)temp
C
wind
direction
speed
KPH
gust
KPH
rain 1hr
cm
rain 24hr
cm
rain mn
cm
humidity
%
barometer
mb
20260904201023 31 127 1.6 6.4 0.00 0.05 0.05 70 1012.3
20260904200522 31 219 3.2 4.8 0.00 0.05 0.05 70 1012.3
20260904195522 31 105 1.6 6.4 0.00 0.05 0.05 71 1012.3
20260904195022 31 113 1.6 4.8 0.00 0.05 0.05 72 1012.3
20260904194522 30 111 0.0 6.4 0.00 0.05 0.05 72 1012.2
20260904194022 30 100 1.6 12.9 0.00 0.05 0.05 72 1012.3
20260904193522 30 221 6.4 12.9 0.00 0.05 0.05 72 1012.4
20260904193022 30 80 3.2 8.0 0.00 0.05 0.05 74 1012.4
20260904192522 30 119 8.0 8.0 0.00 0.05 0.05 74 1012.6
20260904192021 30 134 0.0 3.2 0.00 0.05 0.05 74 1012.6
20260904191522 30 113 0.0 4.8 0.00 0.05 0.05 75 1012.7
20260904191021 30 135 3.2 4.8 0.00 0.05 0.05 75 1012.7
20260904190522 30 68 1.6 4.8 0.00 0.05 0.05 76 1012.8
20260904190021 30 123 1.6 9.7 0.00 0.05 0.05 76 1013.0
20260904185521 30 74 6.4 9.7 0.00 0.05 0.05 76 1013.1
20260904185021 30 90 1.6 9.7 0.00 0.05 0.05 76 1013.2
20260904184521 30 117 0.0 9.7 0.00 0.05 0.05 76 1013.3
20260904184021 29 102 0.0 6.4 0.00 0.05 0.05 77 1013.4
20260904183521 29 98 3.2 9.7 0.00 0.05 0.05 77 1013.4
20260904183021 29 107 3.2 9.7 0.00 0.05 0.05 77 1013.5
20260904182521 29 129 3.2 4.8 0.00 0.05 0.05 77 1013.5
20260904182021 29 126 0.0 4.8 0.00 0.05 0.05 78 1013.5
20260904181021 29 108 0.0 4.8 0.00 0.05 0.05 78 1013.5
20260904180521 29 153 3.2 9.7 0.00 0.05 0.05 78 1013.6
20260904180021 28 142 1.6 9.7 0.00 0.05 0.05 78 1013.6
20260904175021 28 157 3.2 3.2 0.00 0.05 0.05 78 1013.7
20260904174521 28 79 1.6 3.2 0.00 0.05 0.05 79 1013.7
20260904173020 28 299 1.6 3.2 0.00 0.05 0.05 79 1013.8
20260904172521 28 109 3.2 3.2 0.00 0.05 0.05 79 1013.9
20260904171521 28 145 0.0 1.6 0.00 0.05 0.05 79 1013.9
20260904171021 28 145 0.0 4.8 0.00 0.05 0.05 80 1013.9
20260904170520 28 170 0.0 4.8 0.00 0.05 0.05 80 1013.9
20260904170020 28 111 0.0 1.6 0.00 0.05 0.05 80 1013.9
20260904165520 28 100 0.0 3.2 0.00 0.05 0.05 80 1013.9
20260904165020 28 124 0.0 6.4 0.00 0.05 0.05 80 1013.9
20260904164520 28 126 1.6 6.4 0.00 0.05 0.05 80 1013.9
20260904164020 28 159 1.6 9.7 0.00 0.05 0.05 80 1013.8
20260904163520 28 168 3.2 9.7 0.00 0.05 0.05 80 1013.7
20260904163020 28 134 1.6 8.0 0.00 0.05 0.05 80 1013.7
20260904162520 27 141 8.0 8.0 0.00 0.05 0.05 81 1013.6
20260904162020 27 140 8.0 14.5 0.00 0.05 0.05 81 1013.7
20260904161520 27 126 14.5 14.5 0.00 0.05 0.05 81 1013.6
20260904160519 27 182 1.6 6.4 0.03 0.05 0.05 81 1013.5
20260904160019 27 284 0.0 1.6 0.03 0.05 0.05 81 1013.5
20260904155519 27 100 0.0 4.8 0.05 0.05 0.05 81 1013.5
20260904155020 27 198 3.2 4.8 0.05 0.05 0.05 81 1013.5
20260904154519 27 180 0.0 11.3 0.05 0.05 0.05 81 1013.4
20260904154019 27 252 3.2 11.3 0.05 0.05 0.05 81 1013.4
20260904153519 27 201 0.0 3.2 0.05 0.05 0.05 81 1013.4
20260904153019 27 178 1.6 3.2 0.05 0.05 0.05 81 1013.4
20260904152519 27 256 1.6 4.8 0.05 0.05 0.05 81 1013.4
20260904152019 27 203 1.6 4.8 0.05 0.05 0.05 81 1013.3
20260904151018 27 219 0.0 3.2 0.03 0.03 0.03 81 1013.4
20260904150018 27 256 3.2 4.8 0.03 0.03 0.03 81 1013.3
20260904145519 27 248 3.2 4.8 0.00 0.00 0.00 81 1013.4
20260904145018 27 274 1.6 4.8 0.00 0.00 0.00 81 1013.4
20260904144518 27 302 1.6 4.8 0.00 0.00 0.00 81 1013.4
20260904144018 27 224 0.0 4.8 0.00 0.00 0.00 81 1013.4
20260904143519 27 250 0.0 8.0 0.00 0.00 0.00 81 1013.3
20260904143018 27 263 3.2 8.0 0.00 0.00 0.00 81 1013.3
20260904142518 27 265 0.0 3.2 0.00 0.00 0.00 81 1013.3
20260904141518 27 315 4.8 6.4 0.00 0.00 0.00 81 1013.4
20260904141018 27 215 1.6 3.2 0.00 0.00 0.00 81 1013.5
20260904140518 27 140 0.0 3.2 0.00 0.00 0.00 81 1013.5
20260904135518 27 140 0.0 3.2 0.00 0.00 0.00 81 1013.5
20260904135018 27 132 0.0 0.0 0.00 0.00 0.00 81 1013.5
20260904134518 27 132 0.0 1.6 0.00 0.00 0.00 81 1013.5
20260904133519 27 214 0.0 1.6 0.00 0.00 0.00 81 1013.4
20260904133017 27 192 0.0 1.6 0.00 0.00 0.00 81 1013.3
20260904132517 27 119 0.0 0.0 0.00 0.00 0.00 81 1013.2
20260904132018 27 119 0.0 0.0 0.00 0.00 0.00 81 1013.3
20260904131517 27 119 0.0 0.0 0.00 0.00 0.00 82 1013.2
20260904131017 27 152 0.0 0.0 0.00 0.00 0.00 81 1013.2
20260904130517 27 230 0.0 3.2 0.00 0.00 0.00 81 1013.2
20260904130017 27 134 3.2 3.2 0.00 0.00 0.00 81 1013.1
20260904125017 27 213 0.0 3.2 0.00 0.00 0.00 81 1013.1
20260904124517 27 137 0.0 1.6 0.00 0.00 0.00 81 1013.0
20260904124016 27 137 0.0 1.6 0.00 0.00 0.00 81 1012.9
20260904123517 27 121 0.0 1.6 0.00 0.00 0.00 81 1012.9
20260904123016 27 185 1.6 3.2 0.00 0.00 0.00 81 1012.8
20260904122516 27 178 3.2 3.2 0.00 0.00 0.00 81 1012.7
20260904122016 27 250 1.6 4.8 0.00 0.00 0.00 81 1012.7
20260904121516 27 142 4.8 4.8 0.00 0.00 0.00 81 1012.6
20260904120516 27 110 1.6 8.0 0.00 0.00 0.00 81 1012.4
20260904115516 27 138 4.8 11.3 0.00 0.00 0.00 81 1012.3
20260904115016 27 161 8.0 8.0 0.00 0.00 0.00 81 1012.4
20260904114516 27 123 1.6 11.3 0.00 0.00 0.00 81 1012.4
20260904114016 27 105 11.3 16.1 0.00 0.00 0.00 81 1012.4
20260904113516 27 100 12.9 16.1 0.00 0.00 0.00 81 1012.5
20260904113016 27 125 11.3 16.1 0.00 0.00 0.00 81 1012.4
20260904112516 27 134 12.9 16.1 0.00 0.00 0.00 81 1012.4
20260904112015 27 56 1.6 11.3 0.00 0.00 0.00 81 1012.3
20260904111515 27 113 1.6 6.4 0.00 0.00 0.00 81 1012.2
20260904110515 27 106 0.0 6.4 0.00 0.00 0.00 81 1012.0
20260904110015 27 132 0.0 6.4 0.00 0.00 0.00 81 1012.0
20260904105515 27 106 4.8 4.8 0.00 0.00 0.00 81 1012.2
20260904105015 27 129 0.0 8.0 0.00 0.00 0.00 81 1012.2
20260904104516 27 119 8.0 8.0 0.00 0.00 0.00 81 1012.2
20260904104015 27 144 6.4 8.0 0.00 0.00 0.00 81 1012.1
20260904103515 27 109 0.0 3.2 0.00 0.00 0.00 81 1012.0
20260904102515 27 143 0.0 3.2 0.00 0.00 0.00 81 1011.9
20260904102015 27 119 0.0 3.2 0.00 0.00 0.00 81 1011.9
20260904101515 27 137 0.0 0.0 0.00 0.00 0.00 81 1011.9
20260904101015 27 140 0.0 3.2 0.00 0.00 0.00 81 1011.9
20260904100515 27 140 1.6 3.2 0.00 0.00 0.00 80 1011.9
20260904100015 27 101 0.0 3.2 0.00 0.00 0.00 80 1011.8
20260904095014 27 139 1.6 4.8 0.00 0.00 0.00 80 1011.9
20260904094514 27 122 0.0 9.7 0.00 0.00 0.00 80 1011.8
20260904094014 27 145 3.2 9.7 0.00 0.00 0.00 80 1011.9
20260904093514 27 157 0.0 4.8 0.00 0.00 0.00 80 1011.9
20260904093014 27 123 1.6 6.4 0.00 0.00 0.00 80 1011.9
20260904092514 27 136 3.2 6.4 0.00 0.00 0.00 80 1011.8
20260904092014 27 132 6.4 6.4 0.00 0.00 0.00 80 1011.8
20260904091514 27 150 1.6 6.4 0.00 0.00 0.00 80 1011.9
20260904090514 27 146 3.2 4.8 0.00 0.00 0.00 80 1011.8
20260904090014 27 153 0.0 6.4 0.00 0.00 0.00 80 1011.8
20260904085514 27 140 1.6 6.4 0.00 0.00 0.00 80 1011.7
20260904085014 27 119 3.2 6.4 0.00 0.00 0.00 80 1011.6
20260904084514 27 225 4.8 9.7 0.00 0.00 0.00 80 1011.7
20260904084014 27 109 3.2 9.7 0.00 0.00 0.00 80 1011.7
20260904083014 27 152 3.2 4.8 0.00 0.00 0.00 80 1011.8
20260904082514 27 140 0.0 3.2 0.00 0.00 0.00 79 1011.8
20260904082014 27 170 0.0 3.2 0.00 0.00 0.00 79 1011.8
20260904081514 27 117 3.2 9.7 0.00 0.00 0.00 79 1011.8
20260904081013 27 98 3.2 9.7 0.00 0.00 0.00 79 1011.8
20260904080513 27 123 0.0 6.4 0.00 0.00 0.00 79 1011.8
20260904074013 27 189 0.0 4.8 0.00 0.00 0.00 79 1011.9
20260904072513 27 150 0.0 3.2 0.00 0.00 0.00 79 1011.9
20260904071513 27 219 1.6 6.4 0.00 0.00 0.00 78 1012.1
20260904071013 27 207 1.6 6.4 0.00 0.00 0.00 78 1012.1
20260904070013 27 108 3.2 9.7 0.00 0.00 0.00 78 1012.3
20260904065513 27 152 3.2 9.7 0.00 0.00 0.00 78 1012.3
20260904065013 27 165 1.6 9.7 0.00 0.00 0.00 78 1012.3
20260904064513 27 173 4.8 4.8 0.00 0.00 0.00 78 1012.3
20260904063513 27 113 0.0 4.8 0.00 0.00 0.00 77 1012.3
20260904063013 27 117 4.8 6.4 0.00 0.00 0.00 77 1012.3
20260904062512 27 127 0.0 6.4 0.00 0.00 0.00 77 1012.3
20260904062012 27 212 3.2 8.0 0.00 0.00 0.00 77 1012.2
20260904061512 27 161 6.4 8.0 0.00 0.00 0.00 77 1012.2
20260904060012 27 134 6.4 6.4 0.00 0.00 0.00 76 1012.3
20260904055512 27 223 0.0 8.0 0.00 0.00 0.00 76 1012.1
20260904055012 27 238 3.2 8.0 0.00 0.00 0.00 76 1012.2
20260904054512 27 143 1.6 6.4 0.00 0.00 0.00 76 1012.1
20260904054012 27 116 1.6 12.9 0.00 0.00 0.00 76 1012.1
20260904053512 28 260 1.6 14.5 0.00 0.00 0.00 76 1012.0
20260904052011 28 205 6.4 16.1 0.00 0.00 0.00 75 1012.0
20260904051012 28 140 0.0 6.4 0.00 0.00 0.00 75 1011.9
20260904050011 28 138 8.0 8.0 0.00 0.00 0.00 75 1011.9
20260904045511 28 157 4.8 6.4 0.00 0.00 0.00 75 1011.9
20260904045011 28 126 4.8 6.4 0.00 0.00 0.00 75 1011.9
20260904044511 28 213 3.2 6.4 0.00 0.00 0.00 75 1012.0
20260904043511 28 126 3.2 12.9 0.00 0.00 0.00 74 1011.8
20260904043011 28 153 1.6 12.9 0.00 0.00 0.00 74 1011.9
20260904042511 28 143 1.6 8.0 0.00 0.00 0.00 74 1011.9
20260904042011 28 138 0.0 9.7 0.00 0.00 0.00 74 1011.9
20260904041511 28 49 1.6 17.7 0.00 0.00 0.00 74 1011.9
20260904041011 28 129 8.0 17.7 0.00 0.00 0.00 73 1011.9
20260904040511 28 122 6.4 16.1 0.00 0.00 0.00 73 1011.8
20260904040011 28 277 1.6 9.7 0.00 0.00 0.00 73 1011.8
20260904035511 28 150 4.8 14.5 0.00 0.00 0.00 73 1011.6
20260904034511 28 115 4.8 12.9 0.00 0.00 0.00 73 1011.8
20260904034011 28 167 6.4 12.9 0.00 0.00 0.00 72 1011.8
20260904033510 28 136 1.6 8.0 0.00 0.00 0.00 72 1011.7
20260904033010 28 134 8.0 8.0 0.00 0.00 0.00 72 1011.6
20260904032510 28 110 1.6 6.4 0.00 0.00 0.00 71 1011.6
20260904032011 28 135 6.4 19.3 0.00 0.00 0.00 71 1011.5
20260904030511 28 115 3.2 9.7 0.00 0.00 0.00 70 1011.5
20260904030010 28 98 1.6 12.9 0.00 0.00 0.00 70 1011.3
20260904025010 29 96 9.7 14.5 0.00 0.00 0.00 69 1011.1
20260904024510 29 119 1.6 14.5 0.00 0.00 0.00 69 1011.2
20260904024010 29 86 3.2 14.5 0.00 0.00 0.00 68 1011.2
20260904023510 29 142 1.6 9.7 0.00 0.00 0.00 68 1011.2
20260904023010 29 111 4.8 9.7 0.00 0.00 0.00 68 1011.1
20260904022510 29 120 1.6 14.5 0.00 0.00 0.00 67 1011.0
20260904022009 29 95 4.8 14.5 0.00 0.00 0.00 67 1010.9
20260904021509 30 141 6.4 16.1 0.00 0.00 0.00 66 1011.0
20260904021010 30 121 11.3 16.1 0.00 0.00 0.00 66 1010.9
20260904020509 30 132 8.0 12.9 0.00 0.00 0.00 65 1010.9
20260904020009 30 157 12.9 12.9 0.00 0.00 0.00 65 1010.8
20260904015509 30 68 1.6 12.9 0.00 0.00 0.00 65 1010.6
20260904015009 30 135 4.8 12.9 0.00 0.00 0.00 64 1010.4
20260904014509 30 112 1.6 11.3 0.00 0.00 0.00 64 1010.2
20260904014009 30 134 11.3 16.1 0.00 0.00 0.00 64 1010.2
20260904013509 30 170 8.0 16.1 0.00 0.00 0.00 63 1010.1
20260904013009 30 133 11.3 16.1 0.00 0.00 0.00 63 1010.1
20260904012508 30 104 3.2 16.1 0.00 0.00 0.00 63 1010.0
20260904011508 30 128 8.0 12.9 0.00 0.00 0.00 62 1010.0
20260904011009 30 123 1.6 17.7 0.00 0.00 0.00 62 1010.0
20260904010008 31 202 11.3 16.1 0.00 0.00 0.00 61 1010.1
20260904005508 31 108 16.1 16.1 0.00 0.00 0.00 61 1010.0
20260904005009 31 124 3.2 25.7 0.00 0.00 0.00 60 1010.0
20260904004508 31 101 9.7 25.7 0.00 0.00 0.00 60 1010.1
20260904004008 31 132 1.6 27.4 0.00 0.00 0.00 60 1010.1
20260904003508 31 136 11.3 27.4 0.00 0.00 0.00 60 1010.0
20260904003008 31 90 9.7 22.5 0.00 0.00 0.00 59 1009.9
20260904002508 31 156 17.7 17.7 0.00 0.00 0.00 59 1009.9
20260904002008 32 170 9.7 17.7 0.00 0.00 0.00 59 1010.1
20260904001508 32 130 6.4 19.3 0.00 0.00 0.00 59 1010.0
20260904001008 32 179 6.4 19.3 0.00 0.00 0.00 59 1010.0
20260904000508 32 256 4.8 20.9 0.00 0.00 0.00 58 1009.9
20260903235508 32 114 3.2 14.5 0.00 0.00 0.00 58 1009.8
20260903235007 32 147 8.0 24.1 0.00 0.00 0.00 58 1009.8
20260903234507 32 132 4.8 24.1 0.00 0.00 0.00 58 1009.8
20260903234008 32 121 1.6 14.5 0.00 0.00 0.00 57 1009.8
20260903233508 32 138 4.8 12.9 0.00 0.00 0.00 57 1009.7
20260903233007 33 209 4.8 14.5 0.00 0.00 0.00 57 1009.6
20260903232507 33 141 14.5 22.5 0.00 0.00 0.00 56 1009.5
20260903232008 33 195 8.0 22.5 0.00 0.00 0.00 55 1009.6
20260903231508 33 123 3.2 16.1 0.00 0.00 0.00 57 1009.6
20260903231007 33 120 11.3 20.9 0.00 0.00 0.00 57 1009.5
20260903225507 33 123 8.0 19.3 0.00 0.00 0.00 56 1009.4
20260903225008 33 61 12.9 20.9 0.00 0.00 0.00 56 1009.3
20260903224507 33 112 11.3 20.9 0.00 0.00 0.00 55 1009.3
20260903224007 34 83 19.3 20.9 0.00 0.00 0.00 55 1009.2
20260903223007 35 128 17.7 24.1 0.00 0.00 0.00 49 1009.2
20260903222507 35 163 6.4 25.7 0.00 0.00 0.00 47 1009.1
20260903222007 35 156 11.3 25.7 0.00 0.00 0.00 47 1009.0
20260903221507 35 80 3.2 24.1 0.00 0.00 0.00 47 1008.9
20260903221007 35 109 6.4 24.1 0.00 0.00 0.00 47 1008.9
20260903220006 35 86 12.9 12.9 0.00 0.00 0.00 47 1008.9
20260903215507 36 148 8.0 11.3 0.00 0.00 0.00 46 1009.0
20260903215006 36 360 3.2 19.3 0.00 0.00 0.00 46 1009.0
20260903214006 36 86 12.9 22.5 0.00 0.00 0.00 45 1009.0
20260903213507 37 100 4.8 24.1 0.00 0.00 0.00 45 1009.0
20260903212506 37 101 3.2 16.1 0.00 0.00 0.00 43 1008.9
20260903212006 37 155 4.8 16.1 0.00 0.00 0.00 44 1008.9
20260903211506 37 169 6.4 6.4 0.00 0.00 0.00 44 1008.9
20260903211006 37 192 1.6 4.8 0.00 0.00 0.00 45 1009.0
20260903210506 37 111 1.6 6.4 0.00 0.00 0.00 45 1009.2
20260903205506 37 141 1.6 19.3 0.00 0.00 0.00 45 1009.2
20260903205006 37 126 6.4 19.3 0.00 0.00 0.00 45 1009.4
20260903204506 37 96 1.6 11.3 0.00 0.00 0.00 46 1009.3
20260903204006 37 130 11.3 12.9 0.00 0.00 0.00 46 1009.5
20260903203506 37 199 8.0 12.9 0.00 0.00 0.00 46 1009.5
20260903203006 37 188 1.6 3.2 0.00 0.00 0.00 46 1009.6
20260903202506 37 134 1.6 4.8 0.00 0.00 0.00 47 1009.7
20260903202006 37 153 4.8 4.8 0.00 0.00 0.00 47 1009.8
20260903201506 37 90 1.6 9.7 0.00 0.00 0.00 47 1009.8